Weather History for Pawtucket, RI

Change the Weather History Date:

Thursday, March 27, 2014

  Actual Average Record
Temperature  
Mean Temperature 30 °F -  
Max Temperature 44 °F 47 °F 78 °F (1998)
Min Temperature 17 °F 31 °F 17 °F (2014)
Degree Days  
Heating Degree Days 34    
Moisture  
Dew Point 2 °F    
Average Humidity 32    
Maximum Humidity 56    
Minimum Humidity 15    
Precipitation  
Precipitation 0.00 in - - ()
Sea Level Pressure  
Sea Level Pressure 30.24 in    
Wind  
Wind Speed 10 mph (West)    
Max Wind Speed 17 mph    
Max Gust Speed 30 mph    
Visibility 10 miles    
Events      
Averages and records for this station are not official NWS values.
T = Trace of Precipitation, MM = Missing Value Source: NWS Daily Summary

Daily Weather History Graph

Daily Weather History Graph

Search for Another Location

Airport:

Trip Planner

Search our weather history database for the weather conditions in past years. The results will help you decide how hot, cold, wet, or windy it might be!

Date:

Astronomy

Mar. 27, 2014 Rise Set
Actual Time 6:37 AM EDT 7:05 PM EDT
Civil Twilight 6:09 AM EDT 7:33 PM EDT
Nautical Twilight 5:36 AM EDT 8:07 PM EDT
Astronomical Twilight 5:02 AM EDT 8:40 PM EDT
Moon 4:29 AM EDT (3/27) 3:47 PM EDT (3/27)
Length of Visible Light 13h 24m
Length of Day
12h 28m
Waning Crescent, 13% of the Moon is Illuminated
Mar 27
Waning Crescent
Mar 30
New
Apr 7
First Quarter
Apr 15
Full
Apr 22
Last Quarter

Hourly Weather History & Observations

Time (EDT) Temp. Windchill Dew Point Humidity Pressure Visibility Wind Dir Wind Speed Gust Speed Precip Events Conditions
12:15 AM 21.2 °F 8.9 °F -5.8 °F 30% 30.03 in 10.0 mi WNW 12.7 mph 21.9 mph N/A   Clear
12:35 AM 21.2 °F 9.5 °F -5.8 °F 30% 30.04 in 10.0 mi WNW 11.5 mph 19.6 mph N/A   Clear
12:55 AM 21.2 °F 8.9 °F -5.8 °F 30% 30.06 in 10.0 mi NW 12.7 mph 21.9 mph N/A   Clear
1:15 AM 21.2 °F 6.8 °F -5.8 °F 30% 30.07 in 10.0 mi NW 17.3 mph 29.9 mph N/A   Clear
1:35 AM 19.4 °F 6.6 °F -5.8 °F 33% 30.07 in 10.0 mi WNW 12.7 mph 21.9 mph N/A   Clear
1:55 AM 19.4 °F 5.0 °F -5.8 °F 33% 30.08 in 10.0 mi WNW 16.1 mph 23.0 mph N/A   Clear
2:15 AM 19.4 °F 6.6 °F -5.8 °F 33% 30.09 in 10.0 mi WNW 12.7 mph 23.0 mph N/A   Clear
2:35 AM 19.4 °F 5.5 °F -5.8 °F 33% 30.10 in 10.0 mi NW 15.0 mph 20.7 mph N/A   Clear
2:55 AM 19.4 °F 9.5 °F -5.8 °F 33% 30.11 in 10.0 mi WNW 8.1 mph - N/A   Clear
3:15 AM 19.4 °F 10.4 °F -5.8 °F 33% 30.12 in 10.0 mi WNW 6.9 mph - N/A   Clear
3:35 AM 19.4 °F 8.6 °F -5.8 °F 33% 30.14 in 10.0 mi WNW 9.2 mph - N/A   Clear
3:55 AM 19.4 °F 8.6 °F -5.8 °F 33% 30.15 in 10.0 mi West 9.2 mph - N/A   Clear
4:15 AM 19.4 °F 9.5 °F -4.0 °F 36% 30.17 in 10.0 mi WNW 8.1 mph 18.4 mph N/A   Clear
4:35 AM 19.4 °F 7.2 °F -4.0 °F 36% 30.18 in 10.0 mi WNW 11.5 mph - N/A   Clear
4:55 AM 19.4 °F 9.5 °F -4.0 °F 36% 30.19 in 10.0 mi West 8.1 mph 16.1 mph N/A   Clear
5:15 AM 19.4 °F 6.6 °F -2.2 °F 39% 30.21 in 10.0 mi WNW 12.7 mph 19.6 mph N/A   Clear
5:35 AM 19.4 °F 11.5 °F -2.2 °F 39% 30.22 in 10.0 mi West 5.8 mph - N/A   Clear
5:55 AM 17.6 °F 8.2 °F -2.2 °F 42% 30.24 in 10.0 mi West 6.9 mph - N/A   Clear
6:15 AM 17.6 °F 5.7 °F -2.2 °F 42% 30.24 in 10.0 mi WNW 10.4 mph - N/A   Clear
6:35 AM 17.6 °F 6.4 °F -0.4 °F 45% 30.25 in 10.0 mi West 9.2 mph - N/A   Clear
6:55 AM 19.4 °F 10.4 °F -0.4 °F 42% 30.27 in 10.0 mi West 6.9 mph - N/A   Clear
7:15 AM 19.4 °F 7.9 °F -0.4 °F 42% 30.28 in 10.0 mi WNW 10.4 mph - N/A   Clear
7:35 AM 19.4 °F 9.5 °F -0.4 °F 42% 30.29 in 10.0 mi WNW 8.1 mph - N/A   Clear
7:55 AM 21.2 °F 10.9 °F -0.4 °F 39% 30.29 in 10.0 mi WNW 9.2 mph - N/A   Clear
8:15 AM 21.2 °F 8.3 °F -0.4 °F 39% 30.29 in 10.0 mi West 13.8 mph 18.4 mph N/A   Clear
8:35 AM 24.8 °F 14.6 °F -0.4 °F 34% 30.30 in 10.0 mi WNW 10.4 mph 18.4 mph N/A   Clear
8:55 AM 24.8 °F 12.4 °F -0.4 °F 34% 30.29 in 10.0 mi NNW 15.0 mph 24.2 mph N/A   Clear
9:15 AM 26.6 °F 14.3 °F -0.4 °F 31% 30.29 in 10.0 mi NW 16.1 mph 24.2 mph N/A   Clear
9:35 AM 26.6 °F 14.3 °F -0.4 °F 31% 30.31 in 10.0 mi WNW 16.1 mph 23.0 mph N/A   Clear
9:55 AM 28.4 °F 17.5 °F -0.4 °F 29% 30.31 in 10.0 mi NW 13.8 mph 19.6 mph N/A   Clear
10:15 AM 30.2 °F 19.8 °F -0.4 °F 27% 30.31 in 10.0 mi NW 13.8 mph 18.4 mph N/A   Clear
10:35 AM 32.0 °F 22.5 °F 1.4 °F 27% 30.31 in 10.0 mi NW 12.7 mph 20.7 mph N/A   Clear
10:55 AM 32.0 °F 23.0 °F -0.4 °F 25% 30.31 in 10.0 mi NW 11.5 mph 17.3 mph N/A   Clear
11:15 AM 33.8 °F 25.3 °F 1.4 °F 25% 30.31 in 10.0 mi NW 11.5 mph - N/A   Clear
11:35 AM 33.8 °F 26.4 °F 1.4 °F 25% 30.31 in 10.0 mi WNW 9.2 mph - N/A   Clear
11:55 AM 35.6 °F 29.2 °F 1.4 °F 24% 30.32 in 10.0 mi West 8.1 mph 16.1 mph N/A   Clear
12:15 PM 35.6 °F 28.6 °F 1.4 °F 24% 30.31 in 10.0 mi West 9.2 mph - N/A   Clear
12:35 PM 35.6 °F 32.8 °F 1.4 °F 24% 30.30 in 10.0 mi WSW 3.5 mph - N/A   Clear
12:55 PM 37.4 °F 32.1 °F 1.4 °F 22% 30.29 in 10.0 mi SW 6.9 mph - N/A   Clear
1:15 PM 39.2 °F 32.0 °F 3.2 °F 22% 30.29 in 10.0 mi West 11.5 mph - N/A   Clear
1:35 PM 39.2 °F 35.0 °F 1.4 °F 21% 30.26 in 10.0 mi West 5.8 mph - N/A   Clear
1:55 PM 39.2 °F 32.5 °F 1.4 °F 21% 30.27 in 10.0 mi WSW 10.4 mph - N/A   Clear
2:15 PM 42.8 °F 39.3 °F 1.4 °F 18% 30.27 in 10.0 mi SSW 5.8 mph - N/A   Clear
2:35 PM 42.8 °F 37.5 °F 1.4 °F 18% 30.27 in 10.0 mi West 9.2 mph 18.4 mph N/A   Clear
2:55 PM 44.6 °F 40.7 °F 1.4 °F 17% 30.27 in 10.0 mi SW 6.9 mph - N/A   Clear
3:15 PM 44.6 °F 40.7 °F 1.4 °F 17% 30.26 in 10.0 mi SW 6.9 mph - N/A   Clear
3:35 PM 44.6 °F 40.7 °F 1.4 °F 17% 30.26 in 10.0 mi West 6.9 mph 16.1 mph N/A   Clear
3:55 PM 44.6 °F 40.2 °F 1.4 °F 17% 30.26 in 10.0 mi SW 8.1 mph - N/A   Clear
4:15 PM 44.6 °F 39.2 °F 1.4 °F 17% 30.25 in 10.0 mi SSW 10.4 mph - N/A   Clear
4:35 PM 44.6 °F 41.4 °F -0.4 °F 15% 30.26 in 10.0 mi SW 5.8 mph - N/A   Clear
4:55 PM 44.6 °F 39.7 °F 1.4 °F 17% 30.26 in 10.0 mi WSW 9.2 mph - N/A   Clear
5:15 PM 44.6 °F 40.7 °F 1.4 °F 17% 30.26 in 10.0 mi SW 6.9 mph - N/A   Clear
5:35 PM 44.6 °F 41.4 °F 1.4 °F 17% 30.26 in 10.0 mi SSW 5.8 mph - N/A   Clear
5:55 PM 42.8 °F 38.6 °F 8.6 °F 25% 30.26 in 10.0 mi SSW 6.9 mph - N/A   Clear
6:15 PM 39.2 °F 33.6 °F 8.6 °F 28% 30.27 in 10.0 mi SW 8.1 mph - N/A   Clear
6:35 PM 39.2 °F 33.6 °F 6.8 °F 26% 30.27 in 10.0 mi SSW 8.1 mph - N/A   Clear
6:55 PM 37.4 °F 32.1 °F 5.0 °F 26% 30.28 in 10.0 mi SSW 6.9 mph - N/A   Partly Cloudy
7:15 PM 35.6 °F 29.9 °F 3.2 °F 26% 30.29 in 10.0 mi SW 6.9 mph - N/A   Scattered Clouds
7:35 PM 35.6 °F 30.7 °F 5.0 °F 28% 30.28 in 10.0 mi SSW 5.8 mph - N/A   Scattered Clouds
7:55 PM 33.8 °F 27.0 °F 6.8 °F 32% 30.29 in 10.0 mi SW 8.1 mph - N/A   Partly Cloudy
8:15 PM 33.8 °F 28.6 °F 8.6 °F 35% 30.29 in 10.0 mi SSW 5.8 mph - N/A   Partly Cloudy
8:35 PM 33.8 °F 29.6 °F 10.4 °F 38% 30.29 in 10.0 mi SSW 4.6 mph - N/A   Clear
8:55 PM 33.8 °F 27.7 °F 12.2 °F 41% 30.29 in 10.0 mi SSW 6.9 mph - N/A   Partly Cloudy
9:15 PM 33.8 °F 28.6 °F 14.0 °F 44% 30.30 in 10.0 mi SSW 5.8 mph - N/A   Mostly Cloudy
9:35 PM 33.8 °F 27.7 °F 14.0 °F 44% 30.29 in 10.0 mi SSW 6.9 mph - N/A   Mostly Cloudy
9:55 PM 33.8 °F 28.6 °F 14.0 °F 44% 30.29 in 10.0 mi SSW 5.8 mph - N/A   Partly Cloudy
10:15 PM 32.0 °F 27.5 °F 14.0 °F 48% 30.27 in 10.0 mi SSW 4.6 mph - N/A   Partly Cloudy
10:35 PM 32.0 °F 25.6 °F 14.0 °F 48% 30.28 in 10.0 mi SSW 6.9 mph - N/A   Scattered Clouds
10:55 PM 32.0 °F 24.8 °F 15.8 °F 51% 30.28 in 10.0 mi SSW 8.1 mph - N/A   Mostly Cloudy
11:15 PM 32.0 °F 25.6 °F 15.8 °F 51% 30.27 in 10.0 mi SSW 6.9 mph - N/A   Mostly Cloudy
11:35 PM 32.0 °F 26.4 °F 17.6 °F 55% 30.27 in 10.0 mi SSW 5.8 mph - N/A   Mostly Cloudy
11:55 PM 33.8 °F 27.7 °F 19.4 °F 56% 30.27 in 10.0 mi SSW 6.9 mph - N/A   Overcast